Wind_Speed
37 37 38 38 37 37 37 37 38 38 38 37 36 35 35 34 34 34 34 35 35 35 35 35 36 36 37 37 37 37 36 36 36 37 38 38 38 39 40 40 42 43 44 45
37 38 38 38 38 38 37 37 37 37 36 36 35 35 34 33 32 32 32 32 32 32 33 33 33 34 34 35 36 36 35 35 35 36 36 37 38 38 38 38 39 40 42 43
38 38 39 38 38 38 38 37 37 36 35 35 34 34 33 32 31 31 31 31 31 31 30 30 31 32 32 33 33 34 35 34 34 34 34 35 36 37 37 37 38 38 39 41
39 38 38 38 37 37 37 36 36 35 35 35 34 33 33 33 32 31 31 30 30 31 31 30 29 29 30 30 31 32 32 32 32 32 32 33 34 35 36 37 37 37 37 38
39 39 39 37 37 37 37 35 35 35 35 35 34 33 32 33 33 33 31 30 30 31 30 29 29 28 29 29 29 30 30 31 31 31 31 31 32 33 34 35 36 36 36 37
38 39 39 38 38 37 37 35 34 34 34 34 33 32 31 32 32 32 31 30 29 30 29 29 29 29 28 28 29 29 30 30 30 30 30 30 30 31 32 33 34 34 35 35
37 38 38 38 37 36 36 36 35 34 33 33 32 32 32 31 31 31 31 31 30 29 29 29 30 30 30 30 29 29 29 30 30 30 29 29 29 29 30 31 32 33 34 34
37 37 37 36 36 36 36 36 35 34 33 32 32 32 32 31 31 31 31 32 32 31 30 30 30 30 30 29 30 30 29 29 29 29 29 29 28 28 28 29 30 31 32 32
37 36 36 36 36 36 36 35 34 34 33 32 32 31 31 31 31 32 32 32 32 32 31 31 30 29 28 28 28 28 28 28 29 29 28 28 28 27 28 28 29 30 30 30
36 35 35 35 35 34 34 33 32 32 32 32 31 30 30 30 31 31 32 32 32 32 31 30 29 28 27 27 27 27 28 28 27 27 27 27 27 27 27 28 28 29 29 30
35 35 35 34 34 33 33 32 32 32 32 31 30 30 30 30 31 31 31 31 31 31 31 30 30 29 28 28 27 27 27 27 28 28 27 27 27 26 27 27 27 28 28 29
36 36 36 34 34 33 33 33 33 32 31 31 30 30 30 30 30 31 31 30 29 29 29 29 29 29 29 29 28 27 27 27 28 28 28 27 27 27 27 27 27 28 28 29
36 35 35 34 34 33 33 33 33 32 31 30 30 30 30 30 31 31 30 29 28 28 28 28 28 28 28 28 28 28 27 27 28 28 28 27 28 27 27 27 27 28 29 29
35 34 33 33 33 33 33 32 32 31 31 31 31 31 31 31 31 31 30 29 28 27 27 27 27 27 27 27 27 28 28 28 28 28 28 28 29 28 28 28 28 28 29 29
34 33 33 33 32 32 32 31 31 31 31 31 31 31 32 32 31 30 29 28 27 27 26 26 26 26 27 27 27 27 27 28 28 29 29 29 29 29 28 28 28 29 29 30
33 33 32 32 32 31 31 30 30 30 31 31 32 32 32 31 30 29 28 27 26 26 26 25 26 26 26 26 26 26 26 27 28 29 30 30 30 29 29 29 29 29 29 29
32 32 32 31 31 30 30 30 30 31 31 31 31 31 32 31 30 29 27 27 26 26 26 25 25 25 25 25 25 25 25 26 28 29 29 30 30 30 30 30 30 30 30 30
32 32 31 30 30 30 30 30 31 31 31 31 31 31 31 30 29 29 28 27 27 26 26 25 25 25 25 25 25 25 25 26 27 28 29 30 30 30 31 31 31 30 30 30
31 30 30 30 30 30 30 31 31 31 31 31 31 31 31 30 29 28 28 27 26 26 25 25 24 24 24 25 25 25 25 25 25 26 27 28 29 29 30 30 30 31 31 31
31 31 31 31 30 31 31 31 32 32 31 31 30 30 29 29 28 28 27 27 27 26 25 25 24 24 24 24 24 23 24 25 25 25 26 27 27 28 29 29 30 30 30 30
31 31 31 31 31 32 31 31 31 31 30 29 29 29 29 29 28 28 27 27 26 26 25 25 24 24 23 23 22 22 22 23 23 24 25 25 26 27 27 28 28 29 29 30
31 31 31 31 31 31 31 31 30 30 29 29 29 29 28 28 27 27 27 26 26 26 25 25 24 24 23 22 22 21 21 21 22 22 23 24 25 25 26 27 27 28 28 28
31 30 30 31 31 30 30 30 30 30 29 29 29 28 28 28 27 26 26 25 25 24 23 23 22 22 22 21 21 21 21 21 21 21 22 22 23 24 25 25 26 26 27 27
30 30 30 30 30 29 29 29 29 29 29 28 28 28 27 27 26 25 25 24 23 22 22 21 20 20 20 20 20 20 21 21 21 21 21 21 22 22 23 23 24 25 25 26
29 29 29 29 29 29 29 29 29 28 28 27 27 27 26 26 25 24 24 23 22 21 20 19 19 19 19 18 18 18 19 19 19 20 20 20 21 21 22 22 23 24 24 25
28 29 29 29 29 29 28 28 27 27 27 27 26 26 26 25 24 23 23 21 20 19 18 18 18 17 17 17 17 17 16 16 16 17 17 18 19 20 21 22 22 22 23 24
28 28 28 28 28 28 27 27 26 26 26 26 25 25 24 23 23 22 21 19 18 18 17 17 17 16 16 16 16 16 16 15 15 16 16 17 18 18 19 20 20 21 22 23
Wind_Direction
304 303 303 303 302 302 301 301 300 300 298 296 295 294 292 290 287 286 284 283 280 277 276 274 271 269 267 266 265 265 265 264 263 261 258 255 254 253 253 253 253 251 249 248
303 303 302 302 303 301 301 302 302 301 300 297 295 294 293 292 289 287 285 284 281 279 276 274 272 270 268 267 266 265 265 264 263 261 258 255 253 252 252 253 253 252 249 247
304 304 304 304 304 302 301 301 302 301 300 299 298 295 293 292 290 288 286 284 282 280 279 275 273 271 269 269 267 266 265 264 263 260 258 256 254 251 252 253 254 253 250 247
306 306 305 306 305 304 302 302 302 301 300 299 299 297 294 291 289 289 288 284 282 281 280 278 275 271 270 269 267 267 266 264 261 260 259 258 256 254 253 252 252 251 250 249
307 307 307 307 306 305 304 304 303 301 299 297 297 296 295 293 289 287 287 285 283 281 280 279 277 273 270 269 269 269 267 264 262 260 259 259 258 256 255 252 250 250 250 249
307 307 308 309 306 304 304 304 304 303 300 298 297 296 295 294 291 288 286 284 284 284 281 279 277 275 273 271 269 269 267 264 263 261 260 260 259 257 256 253 252 252 250 248
307 306 307 309 308 307 304 305 305 304 302 300 299 298 296 294 292 289 288 286 285 284 282 279 277 276 275 273 270 268 267 265 263 262 260 259 259 257 255 253 251 250 249 249
305 306 308 308 306 306 305 305 305 305 304 303 300 299 298 296 293 291 290 288 285 284 281 279 277 276 275 273 270 268 266 265 264 262 260 258 257 257 255 253 251 250 249 249
305 306 306 307 306 306 305 304 305 305 304 303 302 300 298 297 294 292 291 289 286 283 281 279 277 275 274 273 270 267 266 265 263 261 260 258 258 257 256 254 251 250 251 249
305 305 305 306 306 306 305 305 305 305 305 305 303 302 301 298 296 294 293 291 288 284 281 279 277 274 273 271 269 267 264 263 262 261 259 258 258 257 256 254 252 250 250 248
303 304 304 305 305 304 304 305 306 306 306 305 304 303 302 302 300 298 296 294 290 286 282 279 277 274 272 271 269 267 264 261 259 259 258 257 257 257 256 253 252 250 248 247
303 304 304 304 303 302 303 304 305 305 304 304 305 304 304 303 303 301 299 296 292 288 285 281 277 274 273 271 268 266 263 260 258 256 255 255 255 255 254 253 252 250 248 249
303 304 304 304 302 302 302 303 304 304 304 303 303 304 304 304 303 302 300 298 295 291 288 284 279 276 274 271 268 264 261 259 256 255 254 254 254 254 254 253 253 251 249 249
304 304 304 303 304 303 303 303 304 303 303 303 303 303 303 303 303 302 300 298 295 292 289 286 282 278 275 272 269 264 260 257 256 255 254 254 253 253 253 252 251 251 251 250
305 304 304 304 303 303 303 303 303 304 305 304 304 304 303 303 302 301 299 297 295 292 289 286 284 281 278 275 272 267 261 258 256 256 255 255 254 254 254 253 253 252 252 252
305 304 304 304 304 303 303 304 305 305 305 305 304 304 305 304 303 302 300 297 296 294 289 287 285 283 279 277 274 269 264 260 257 257 256 255 255 254 254 254 254 253 253 254
305 304 303 303 304 303 304 305 306 306 306 305 304 304 305 304 303 301 301 299 297 295 292 289 287 283 282 279 276 271 267 264 262 259 257 256 255 254 254 253 254 254 255 255
305 304 304 304 304 304 304 305 306 306 306 306 305 305 305 304 303 301 300 300 298 296 294 291 288 285 282 280 277 273 270 267 263 260 258 255 254 253 253 253 253 255 255 255
306 305 305 305 305 304 304 305 305 305 305 305 305 306 305 304 303 301 299 298 298 297 294 292 290 288 284 282 278 274 270 267 264 262 259 257 254 253 252 252 253 255 256 257
305 304 304 304 304 305 305 305 305 306 306 306 307 307 306 305 303 302 300 298 297 296 294 291 290 289 286 284 280 275 271 268 266 264 261 258 256 254 253 253 254 255 256 257
304 304 304 304 304 305 306 306 306 306 306 306 307 307 306 305 303 302 301 299 297 296 294 291 289 289 287 284 280 276 273 270 267 265 262 259 257 256 255 254 254 255 256 256
305 304 304 304 304 305 306 307 307 307 306 306 307 307 307 306 305 303 302 300 298 296 294 291 289 288 286 283 280 277 274 272 270 267 264 261 259 257 256 256 255 256 256 256
306 306 305 305 305 306 307 307 308 308 307 307 307 307 307 307 306 305 304 303 301 299 296 294 291 288 285 283 280 277 275 273 271 269 266 263 261 258 256 256 257 256 256 256
307 307 307 307 306 307 308 308 308 308 308 307 307 307 308 308 307 307 306 304 303 301 298 295 293 291 289 287 284 280 277 274 271 269 267 263 261 259 257 257 257 257 257 257
308 309 309 309 308 309 309 309 309 309 309 308 308 308 308 308 308 308 307 305 303 301 299 297 294 293 292 290 289 285 282 277 273 269 266 264 263 261 259 259 258 258 258 258
309 310 311 310 309 309 310 310 310 311 311 311 309 308 308 308 308 307 307 305 304 302 301 299 298 297 295 293 291 288 284 279 274 271 269 267 265 263 263 262 262 262 260 260
309 310 311 311 311 311 311 312 312 313 313 313 312 311 310 309 309 309 308 307 305 304 303 302 301 300 299 296 293 289 285 282 278 276 273 270 268 267 265 265 264 264 263 263
Height
5608 5603 5599 5595 5591 5586 5581 5577 5572 5569 5565 5561 5557 5554 5550 5547 5544 5542 5540 5538 5536 5535 5534 5533 5532 5532 5532 5532 5532 5532 5533 5533 5533 5534 5535 5536 5537 5539 5541 5543 5546 5548 5551 5555
5600 5595 5590 5586 5583 5578 5573 5569 5564 5560 5556 5552 5549 5545 5541 5538 5535 5533 5531 5529 5527 5525 5524 5523 5522 5522 5522 5521 5522 5522 5522 5522 5523 5523 5524 5526 5527 5529 5531 5533 5535 5537 5539 5543
5591 5587 5582 5579 5575 5570 5565 5560 5556 5552 5549 5544 5540 5536 5533 5530 5527 5524 5522 5520 5518 5516 5515 5514 5513 5512 5512 5512 5512 5512 5512 5512 5513 5513 5514 5515 5517 5518 5520 5523 5525 5526 5528 5531
5582 5578 5573 5572 5566 5561 5556 5552 5548 5543 5539 5535 5532 5528 5524 5521 5519 5516 5514 5512 5510 5508 5506 5505 5504 5503 5503 5503 5503 5503 5502 5503 5503 5504 5505 5506 5507 5509 5510 5512 5514 5516 5519 5521
5573 5568 5564 5563 5557 5552 5548 5545 5540 5535 5531 5527 5523 5520 5517 5513 5510 5508 5505 5503 5501 5499 5498 5497 5496 5495 5495 5494 5494 5494 5494 5494 5494 5495 5496 5497 5498 5499 5500 5502 5505 5507 5509 5512
5565 5559 5556 5555 5549 5543 5540 5536 5532 5527 5523 5519 5515 5512 5510 5505 5502 5499 5497 5495 5493 5491 5489 5488 5487 5486 5486 5486 5486 5486 5486 5486 5486 5487 5488 5488 5489 5490 5492 5494 5496 5498 5500 5502
5557 5551 5548 5545 5540 5535 5532 5529 5523 5519 5514 5511 5507 5504 5501 5497 5494 5491 5489 5487 5485 5483 5481 5480 5479 5478 5477 5477 5477 5477 5477 5478 5478 5478 5479 5480 5481 5482 5483 5485 5487 5489 5491 5494
5549 5544 5543 5536 5531 5528 5524 5519 5514 5510 5506 5502 5499 5495 5492 5489 5486 5483 5481 5479 5476 5475 5473 5471 5470 5469 5469 5468 5468 5468 5469 5469 5470 5470 5471 5472 5474 5475 5476 5477 5479 5481 5483 5485
5542 5540 5533 5528 5523 5519 5515 5511 5506 5502 5499 5495 5491 5487 5484 5481 5478 5475 5473 5470 5468 5466 5464 5462 5461 5460 5460 5459 5459 5460 5460 5461 5461 5462 5463 5464 5466 5467 5468 5469 5471 5473 5475 5477
5534 5530 5525 5520 5515 5511 5507 5503 5499 5495 5491 5487 5483 5480 5476 5473 5470 5467 5464 5461 5459 5457 5455 5453 5452 5451 5451 5451 5451 5451 5452 5452 5453 5454 5455 5456 5458 5459 5460 5462 5463 5465 5467 5469
5525 5522 5517 5513 5508 5504 5500 5495 5491 5487 5483 5480 5476 5473 5469 5466 5462 5459 5456 5453 5450 5448 5446 5445 5444 5443 5443 5442 5442 5443 5443 5444 5445 5446 5447 5449 5450 5451 5452 5454 5455 5457 5459 5461
5518 5513 5509 5505 5500 5496 5492 5488 5484 5480 5476 5472 5469 5465 5462 5458 5454 5451 5447 5444 5442 5439 5437 5436 5435 5434 5434 5434 5434 5434 5435 5436 5437 5438 5439 5441 5442 5443 5444 5446 5447 5449 5451 5453
5509 5505 5500 5496 5492 5488 5484 5481 5477 5473 5469 5465 5461 5458 5454 5451 5447 5443 5440 5437 5434 5432 5430 5428 5427 5426 5426 5425 5425 5426 5426 5427 5428 5429 5431 5433 5434 5436 5437 5439 5440 5441 5443 5445
5501 5496 5493 5488 5484 5480 5476 5473 5469 5465 5461 5458 5454 5450 5447 5443 5439 5436 5432 5429 5427 5424 5422 5420 5419 5418 5417 5417 5417 5417 5417 5418 5420 5421 5423 5424 5426 5427 5429 5431 5432 5433 5435 5437
5492 5488 5484 5480 5476 5472 5468 5465 5461 5458 5454 5450 5446 5443 5439 5435 5431 5428 5425 5422 5419 5417 5415 5413 5412 5410 5409 5409 5408 5408 5409 5410 5411 5412 5414 5415 5417 5419 5420 5422 5424 5425 5427 5428
5484 5480 5476 5472 5468 5464 5461 5457 5454 5450 5446 5443 5439 5435 5431 5427 5423 5420 5417 5414 5412 5409 5407 5405 5404 5403 5401 5401 5400 5400 5400 5401 5402 5404 5405 5407 5408 5410 5411 5413 5415 5417 5418 5419
5476 5472 5468 5465 5461 5457 5453 5450 5446 5443 5439 5435 5431 5427 5423 5419 5416 5412 5410 5407 5404 5402 5400 5398 5396 5395 5394 5393 5392 5392 5392 5392 5393 5394 5396 5397 5399 5401 5402 5404 5406 5407 5409 5410
5468 5464 5461 5457 5453 5450 5446 5443 5439 5435 5431 5427 5423 5419 5416 5412 5408 5405 5402 5399 5397 5394 5392 5390 5389 5387 5386 5385 5384 5384 5384 5384 5384 5385 5386 5388 5389 5391 5393 5395 5396 5398 5399 5400
5460 5457 5453 5450 5446 5443 5439 5435 5431 5427 5423 5419 5416 5412 5408 5404 5401 5398 5395 5392 5389 5387 5385 5382 5381 5379 5378 5377 5376 5376 5376 5376 5376 5377 5378 5379 5380 5381 5383 5385 5387 5388 5390 5391
5453 5449 5446 5442 5438 5435 5431 5427 5423 5419 5415 5411 5408 5404 5400 5396 5393 5390 5387 5384 5382 5379 5377 5375 5373 5372 5370 5369 5368 5368 5368 5368 5368 5368 5369 5370 5371 5372 5374 5376 5377 5379 5380 5381
5445 5442 5438 5434 5431 5427 5423 5419 5415 5411 5407 5404 5400 5397 5393 5389 5386 5383 5380 5377 5374 5372 5369 5367 5366 5364 5363 5361 5360 5360 5359 5359 5360 5360 5360 5361 5362 5363 5365 5366 5368 5369 5370 5371
5438 5434 5430 5426 5423 5419 5415 5411 5407 5404 5400 5396 5393 5389 5385 5382 5378 5375 5372 5369 5367 5364 5362 5360 5358 5356 5355 5354 5353 5352 5352 5352 5352 5352 5352 5353 5354 5355 5356 5358 5359 5360 5361 5362
5430 5426 5423 5419 5415 5411 5407 5403 5400 5396 5393 5389 5385 5382 5378 5375 5371 5368 5365 5362 5359 5356 5354 5352 5350 5349 5348 5347 5346 5345 5345 5344 5344 5344 5344 5345 5346 5347 5348 5349 5350 5351 5352 5353
5423 5419 5415 5411 5407 5404 5400 5396 5392 5389 5385 5382 5378 5374 5371 5367 5364 5361 5358 5355 5352 5350 5347 5345 5344 5342 5341 5340 5339 5338 5337 5337 5336 5336 5337 5337 5338 5339 5340 5341 5342 5343 5344 5344
5416 5412 5408 5404 5400 5397 5393 5389 5385 5382 5378 5374 5371 5367 5364 5360 5357 5354 5351 5348 5346 5343 5341 5339 5338 5336 5335 5333 5332 5331 5330 5329 5329 5329 5329 5330 5330 5331 5332 5333 5334 5334 5335 5336
5409 5405 5401 5398 5394 5390 5386 5382 5379 5375 5371 5367 5364 5360 5357 5354 5350 5348 5345 5342 5340 5337 5336 5334 5332 5330 5329 5327 5326 5325 5324 5323 5323 5323 5323 5323 5324 5324 5325 5325 5326 5327 5327 5328
5402 5398 5395 5391 5387 5383 5379 5376 5372 5368 5365 5361 5357 5354 5351 5347 5344 5341 5339 5336 5334 5332 5330 5328 5327 5325 5324 5322 5321 5320 5319 5318 5317 5317 5317 5317 5317 5317 5318 5318 5319 5319 5319 5320